Погода в Акимовке

Украина / Запорожская область     46°42′06″N   35°09′52″E
темп.,
°C
ветер,
м/с
пор.,
м/с
влажн.,
%
обл.,
%
осадки,
мм/ч
давл.,
гПа
погр.,
м
26 февраля, пт
пт2623:00+2зюз4997100 0.1 1029239
02:00+3зюз4897100 0.1 1028191
05:00+3з4798100 0.0 1027148
08:00+4з3698100 0.0 1026166
11:00+6з468999 0.0 1026337
14:00+7з468899 0.0 1024405
17:00+7зюз4791100 0.0 1022256
20:00+5юз359378 0.0 102177
27 февраля, сб
сб2723:00+4зюз49930 0.0 1020201
02:00+3зюз49940 0.0 1019194
05:00+2з35961 0.0 101797
08:00+4з369536 0.0 1017264
11:00+6з4794100 0.0 1016421
14:00+8зсз5885100 0.0 1015663
17:00+6ссз4983100 0.0 1015542
20:00+5сз3785100 0.0 1016262
28 февраля, вс
вс2823:00+3сз3484100 0.0 101787
02:00+1ссз359281 0.0 1017111
05:00+2ссз229295 0.0 101757
08:00+2зсз369595 0.0 1018326
11:00+5ссз467297 0.1 1019873
14:00+4ссз578897 0.4 1020539
17:00+3ссз477888 0.1 1020438
20:00+2сз488687 0.1 1022282
1 марта, пн
пн123:00+1сз379091 0.0 1023198
02:000сз379490 0.1 1024153
05:00−1ссз359560 0.0 1025117
08:00+1ссз358574 0.0 1026293
11:00+4с446677 0.1 1028891
14:00+5с446187 0.3 1028997
17:00+3ссз456798 0.1 1028638
20:00+1ссз357797 0.1 1030153
2 марта, вт
вт223:000ссз2382100 0.0 103074
02:00−1ссз338997 0.0 103059
05:00−1ссз238928 0.0 103047
08:00+1сз247815 0.0 1031242
11:00+4з345333 0.0 1030908
14:00+6з565446 0.0 10281131
17:00+5з486798 0.0 1027795
20:00+5з5107399 0.0 1026469